Theta_e
308 308 308 308 308 306 303 302 303 312 312 306 301 300 301 301 305 308 304 304 303 302 302 302 302 303 304 307 308 304 305 303 298 297 301 302 304 302 301 297 293 299 297 297
308 308 308 308 308 306 303 301 302 313 312 301 300 301 302 304 304 303 304 304 306 306 303 301 303 303 306 307 306 305 307 301 295 295 300 302 301 302 302 302 301 298 294 297
308 308 308 308 308 307 304 305 300 307 306 303 302 301 300 300 304 303 303 304 306 305 302 304 303 303 305 306 305 307 310 301 299 294 296 300 298 300 302 300 295 295 296 298
308 307 307 307 307 306 305 302 300 300 299 300 301 301 300 299 299 303 304 303 303 304 301 301 302 304 304 305 307 305 306 300 299 298 297 298 299 299 299 298 298 294 297 297
308 307 306 307 307 305 305 302 301 300 299 299 300 298 299 298 299 300 301 301 302 303 303 304 302 304 304 303 305 304 303 300 299 297 299 299 297 300 300 300 300 299 300 299
308 307 305 306 308 304 304 302 302 301 296 298 299 299 298 298 299 301 302 302 302 301 301 303 305 305 306 306 305 303 303 302 299 294 297 297 294 299 301 302 302 302 297 302
308 307 305 306 307 302 304 303 303 301 295 297 298 299 299 298 298 298 301 302 302 301 303 303 303 302 301 301 302 305 303 302 300 295 296 288 299 302 302 301 302 303 303 306
308 307 304 305 306 303 303 302 303 301 296 298 298 298 298 299 299 299 299 300 301 301 301 299 296 297 297 297 298 299 302 301 296 293 292 296 298 300 299 298 299 304 304 308
307 307 305 305 306 304 303 302 302 303 298 296 299 298 297 297 297 298 298 301 302 301 298 297 293 291 294 293 294 299 298 300 296 292 288 286 296 301 304 305 295 306 308 310
308 307 305 305 305 304 302 300 301 303 299 299 299 298 297 297 296 297 297 298 299 300 296 294 292 292 294 291 292 294 295 294 292 292 290 294 300 301 306 293 297 309 310 311
308 307 305 305 304 304 302 300 302 302 300 299 300 299 297 297 297 297 297 297 297 296 295 294 293 292 294 293 295 295 294 293 291 292 289 287 300 303 299 304 310 310 309 310
308 307 305 305 304 304 299 301 301 301 302 300 299 301 302 301 301 299 296 297 296 298 296 294 294 292 293 293 290 296 291 297 295 296 296 300 304 307 312 310 308 310 309 310
308 307 305 305 304 303 301 300 301 301 299 299 298 299 301 301 302 305 298 298 300 299 299 297 296 293 295 291 292 294 296 297 295 294 299 300 303 307 310 308 306 307 308 310
308 307 306 306 305 304 300 302 300 300 296 294 297 300 300 302 302 302 303 301 300 301 299 298 296 293 296 293 293 293 297 296 295 294 297 298 300 301 301 300 300 299 301 301
308 307 306 306 305 303 301 301 301 301 299 294 295 299 300 300 300 300 301 302 300 298 295 295 294 296 294 294 292 292 295 295 292 293 301 299 299 301 302 300 300 300 299 299
308 306 306 305 304 302 301 295 300 302 301 296 293 298 297 298 300 299 299 300 298 297 295 294 295 295 294 290 289 295 297 298 299 297 300 298 298 299 300 299 299 300 301 301
307 306 305 304 301 301 297 295 298 302 300 294 291 291 296 297 297 297 298 298 297 297 295 293 294 293 294 291 286 293 295 297 297 298 295 294 297 296 299 299 300 301 301 301
306 304 304 302 301 299 297 299 302 300 296 295 289 289 292 296 294 293 296 295 296 295 295 294 293 293 292 287 292 294 296 296 296 296 298 297 298 299 299 300 300 299 299 300
304 303 302 298 296 294 297 304 301 299 295 289 289 287 286 295 292 294 294 295 290 293 291 291 292 290 286 291 294 295 296 295 296 297 298 298 298 299 299 299 299 298 299 301
304 299 294 290 296 304 304 297 293 292 293 293 288 291 288 291 291 290 292 292 291 287 291 292 289 288 294 296 297 297 297 297 297 294 296 298 298 298 299 299 301 301 300 301
296 294 294 299 304 297 294 289 287 288 286 289 289 288 286 292 288 288 289 288 288 284 288 288 287 286 292 296 296 298 298 298 298 300 302 301 301 299 299 299 300 300 300 300
299 299 300 298 294 290 287 286 287 286 285 289 289 290 291 292 294 292 291 288 288 282 290 286 283 289 295 295 296 298 301 301 301 302 301 301 301 301 300 300 300 301 301 302
299 296 291 290 288 282 282 280 284 285 289 290 290 290 292 294 294 291 290 285 285 291 285 284 287 294 294 296 297 299 301 301 301 300 301 301 301 301 301 300 301 302 302 302
292 289 283 285 283 284 285 287 288 291 291 291 292 291 292 291 291 290 285 288 288 282 281 282 291 295 295 296 298 298 298 299 299 298 299 299 299 299 300 301 301 300 299 300
289 289 282 284 287 288 289 289 289 290 293 293 292 291 292 290 288 289 287 284 281 283 283 291 295 296 296 296 297 297 297 297 297 298 298 298 298 298 298 300 300 299 297 298
291 289 285 286 286 286 288 289 290 292 293 294 294 289 288 287 288 284 283 282 281 286 292 296 295 295 296 296 297 297 297 297 297 298 297 296 297 296 296 297 297 298 298 298
288 287 289 288 288 288 289 291 291 294 294 291 291 285 284 289 286 284 288 285 289 292 293 295 296 295 296 296 296 297 297 297 298 297 296 296 297 297 297 296 298 299 300 300
Wind_Speed
9 12 14 16 19 24 4 2 1 3 2 2 1 2 3 2 2 2 3 2 2 2 2 3 2 3 2 5 2 4 2 2 3 2 5 3 2 3 4 3 3 1 3 4
7 8 11 14 16 14 3 3 3 1 2 3 2 2 2 2 2 2 1 2 1 2 3 3 1 3 2 6 2 4 6 1 4 4 3 3 2 3 3 5 1 6 5 2
7 7 9 12 14 13 1 2 1 2 4 2 3 2 1 1 3 1 2 2 1 3 2 3 4 3 4 3 4 6 2 3 3 7 2 2 4 6 6 3 4 4 8 10
6 7 6 10 13 10 2 2 2 1 2 2 2 1 0 1 2 4 4 2 2 4 3 2 3 2 3 3 3 3 2 3 2 2 2 3 5 9 9 10 8 8 8 10
7 6 5 8 10 5 0 1 2 1 2 1 2 2 1 1 1 3 2 2 2 2 3 2 6 5 3 1 3 3 2 3 2 3 3 7 11 12 12 12 12 14 16 18
9 6 4 6 9 4 1 1 1 2 2 2 2 2 2 2 0 2 3 1 2 4 3 4 5 4 5 3 2 4 2 5 4 8 1 3 10 17 18 15 11 10 13 14
10 7 4 4 6 4 1 1 1 1 2 1 2 3 1 2 3 1 3 3 1 2 2 4 4 4 2 0 2 2 5 5 3 4 2 11 3 4 7 11 13 12 12 8
11 9 5 2 5 4 1 1 1 2 2 1 3 3 1 1 2 1 1 3 3 2 2 2 1 1 1 1 4 0 0 4 3 5 9 12 13 5 4 6 13 10 11 8
13 11 7 2 3 4 2 2 1 0 3 4 2 3 0 2 1 2 2 2 3 3 2 2 5 5 1 3 2 5 4 2 5 4 6 7 3 1 7 2 11 6 7 6
15 12 9 4 1 3 2 2 1 0 2 2 3 2 2 3 2 1 1 1 2 2 2 3 5 6 1 5 5 5 4 3 8 9 9 7 5 5 4 7 4 5 4 4
16 14 10 6 2 3 1 2 1 1 1 2 3 3 4 3 2 2 3 3 3 2 5 4 4 5 5 4 2 4 7 5 5 3 6 10 2 2 6 4 1 3 3 3
16 15 12 7 3 2 2 2 1 1 0 2 2 3 3 0 1 3 2 2 1 2 2 2 2 3 3 3 5 2 6 5 3 7 2 1 2 3 0 1 3 2 3 2
17 16 13 9 5 4 2 3 1 2 1 1 2 4 1 2 7 3 3 2 2 3 2 2 1 5 2 5 5 4 3 4 4 2 3 6 4 3 3 2 1 3 3 5
18 16 14 10 6 5 3 2 1 2 3 1 0 2 3 1 4 8 4 4 4 4 1 1 2 3 3 2 2 5 1 5 5 5 5 3 6 6 4 3 1 4 8 8
19 17 15 12 8 8 6 3 2 2 1 0 2 5 1 4 6 8 9 6 4 2 3 3 3 1 3 1 2 7 7 10 10 12 9 8 7 8 9 9 8 10 13 13
20 19 16 12 9 5 1 2 2 2 1 1 2 3 2 4 3 7 9 6 3 2 3 2 2 1 3 4 4 7 7 9 9 12 8 7 8 6 8 9 12 12 11 11
19 17 15 12 9 3 3 1 2 1 0 1 2 1 2 3 2 2 3 2 2 1 3 3 2 3 4 3 9 5 9 9 7 6 3 7 9 7 10 11 13 12 12 13
21 19 17 13 8 5 3 0 4 1 3 1 2 1 2 3 2 3 1 3 2 2 1 2 3 3 3 6 12 14 13 11 11 12 9 12 12 13 14 14 13 14 14 13
24 22 18 5 4 2 2 8 6 1 1 2 2 2 3 3 2 2 2 1 3 2 3 3 4 4 7 11 10 10 11 7 8 8 11 13 12 13 12 10 10 10 11 11
25 7 2 4 3 6 9 1 1 1 2 1 2 0 2 2 0 2 2 0 1 3 2 3 5 5 15 14 12 13 13 11 9 11 11 7 8 8 8 10 8 9 13 15
0 3 3 2 7 2 1 2 2 1 2 2 1 3 1 1 1 2 2 1 1 3 3 4 3 4 6 6 8 8 11 12 12 12 10 9 11 11 13 14 15 16 18 19
4 7 6 3 2 2 3 3 3 3 2 3 3 3 2 2 1 1 2 1 2 4 2 3 4 5 5 6 7 4 5 5 8 10 12 13 13 14 15 17 20 20 20 20
3 4 3 3 2 3 5 7 3 3 4 5 4 3 1 3 1 2 2 3 3 1 4 5 5 4 6 6 5 5 4 7 10 12 14 16 18 20 20 21 20 22 20 19
2 3 4 3 4 4 3 3 3 2 3 5 3 3 1 1 1 1 3 1 2 4 5 6 5 5 7 6 5 6 9 11 15 19 21 23 24 22 21 20 19 19 19 18
3 2 4 3 2 2 2 1 2 2 4 4 4 3 0 2 2 1 1 3 5 6 5 3 2 3 4 6 9 11 14 16 18 19 20 20 20 20 21 19 16 15 16 16
2 3 4 2 3 3 2 2 3 2 4 3 2 3 3 3 2 3 6 4 7 4 4 3 3 6 10 12 13 15 17 18 18 18 15 15 18 16 17 16 16 16 16 16
2 3 2 2 4 4 3 1 3 3 3 2 2 4 2 3 4 4 5 6 8 9 8 7 10 13 15 16 18 18 18 18 17 17 16 16 16 15 15 16 16 15 14 14
Wind_Direction
313 326 330 333 336 336 35 350 212 24 252 101 7 183 195 275 295 275 238 118 108 139 133 107 126 146 56 341 182 148 89 113 124 37 329 267 249 138 160 256 221 45 336 267
294 318 326 333 336 357 315 7 295 337 264 176 192 245 252 263 334 347 7 123 43 57 95 114 114 96 30 5 83 152 170 87 151 141 158 185 227 129 104 99 159 210 253 208
281 308 328 333 332 345 297 323 256 5 61 14 144 154 41 321 6 119 17 98 116 117 106 37 139 130 27 19 80 68 112 132 228 270 355 94 205 202 182 215 223 228 241 270
248 286 325 332 333 345 275 356 88 5 87 72 89 46 115 86 16 5 9 94 86 142 135 118 136 162 152 84 9 58 26 201 211 252 253 220 256 248 211 223 240 238 273 257
237 264 311 332 335 348 212 269 191 150 92 270 137 354 87 106 29 359 21 135 106 67 162 192 183 167 214 156 86 78 12 167 177 256 216 228 250 255 246 238 241 245 261 271
228 243 293 333 344 328 108 133 158 271 16 99 157 138 138 111 303 88 34 31 111 92 72 63 62 59 77 109 162 125 148 148 168 264 342 286 261 241 243 244 240 244 247 270
214 225 251 321 354 30 351 135 148 177 140 194 132 145 87 72 20 341 32 21 96 79 115 121 98 64 14 200 83 39 146 153 179 274 248 254 302 308 266 259 264 242 251 255
205 211 221 292 356 48 108 138 207 158 137 143 173 169 91 5 26 107 23 37 11 319 68 120 109 127 258 94 52 271 214 155 189 250 250 290 278 256 254 254 275 258 242 243
204 201 199 225 355 52 109 85 317 131 143 201 101 145 90 179 156 147 113 45 351 57 68 165 203 235 198 207 171 58 125 208 230 171 243 263 63 117 349 295 269 308 234 247
197 194 191 189 358 47 126 92 340 205 125 175 173 165 159 131 117 159 270 4 149 337 149 185 211 228 204 224 218 189 159 162 215 220 244 268 255 311 304 237 341 347 314 250
192 187 183 180 156 73 187 90 3 336 120 156 198 182 156 143 189 193 109 175 172 126 191 212 185 226 197 211 218 199 224 205 202 193 236 263 71 194 235 12 13 324 349 201
182 180 175 173 155 99 162 121 28 335 2 49 309 278 284 288 166 141 166 8 153 134 141 196 142 189 193 203 227 165 236 242 252 222 256 51 259 268 127 21 331 358 316 324
174 174 169 163 138 86 137 116 123 113 64 199 259 229 137 155 217 214 226 199 131 162 352 126 99 239 189 217 221 245 220 183 236 224 188 223 211 198 193 184 90 43 6 319
168 166 161 155 137 124 114 108 113 76 95 279 136 326 276 116 177 195 185 116 97 97 209 136 181 236 203 225 323 251 270 173 231 245 263 247 230 235 234 207 171 326 315 301
162 160 155 147 130 107 97 94 86 39 310 221 293 299 299 313 201 197 178 147 146 162 165 180 212 191 213 164 256 235 213 234 240 259 287 269 275 270 258 241 267 299 303 298
160 156 147 139 117 111 119 110 89 27 346 206 258 19 355 356 109 152 170 155 129 139 170 165 192 281 245 239 245 255 250 249 256 272 297 280 287 283 266 268 285 285 278 276
153 142 128 111 84 58 87 123 57 80 235 111 268 252 76 351 128 94 126 94 113 173 140 204 216 182 217 243 252 239 240 248 256 261 273 274 253 272 295 286 282 293 286 281
136 129 122 109 88 71 51 27 185 145 84 29 264 237 193 6 148 140 350 142 162 129 137 154 207 155 227 250 240 258 274 274 276 271 249 263 288 291 280 278 284 289 285 284
129 122 117 77 44 99 136 113 100 79 34 189 224 226 124 0 86 88 127 267 191 79 222 210 190 178 225 236 243 247 249 226 257 284 293 294 287 287 292 295 295 288 291 297
133 121 145 118 192 144 130 73 118 55 14 57 235 165 143 320 132 110 170 300 175 227 164 139 221 244 255 259 254 255 255 246 247 261 260 251 273 295 297 297 296 291 292 295
107 133 86 96 145 124 48 108 190 147 208 195 159 218 147 89 221 105 335 131 151 248 121 257 208 244 249 265 263 254 244 243 242 232 260 271 273 280 286 286 288 287 287 285
151 102 110 118 127 120 160 150 138 206 191 172 189 153 196 114 270 206 139 244 192 254 110 245 247 244 262 277 290 268 241 240 251 254 265 273 272 272 273 280 285 282 283 283
65 78 126 173 136 139 190 170 168 192 177 173 170 140 130 150 105 88 207 231 244 313 226 241 261 302 281 298 293 270 259 261 266 270 272 275 280 282 278 283 280 280 281 276
107 130 121 202 167 203 185 160 128 131 134 137 127 100 80 67 132 71 244 57 268 250 245 240 263 307 307 315 317 307 304 311 304 296 291 289 287 285 285 282 281 282 278 277
105 149 112 162 82 79 121 137 137 110 129 127 114 90 53 81 151 212 296 221 237 232 240 246 233 300 323 323 316 305 298 292 288 288 289 290 292 288 286 283 282 277 274 270
79 76 111 89 128 117 125 124 111 136 125 111 75 112 143 198 232 192 218 238 229 238 224 274 287 287 296 296 293 290 290 292 292 290 285 282 280 279 278 281 277 275 270 268
74 86 49 80 85 85 95 117 88 150 166 137 152 184 192 124 223 230 218 233 273 304 299 300 294 293 294 296 296 295 294 292 287 285 281 276 275 276 275 272 276 277 274 271